Weather History for Omaha Offutt, NE

Change the Weather History Date:

Sunday, January 1, 2012

  Actual Average Record
Temperature  
Mean Temperature 34 °F -  
Max Temperature 41 °F 33 °F 53 °F (2006)
Min Temperature 27 °F 15 °F 1 °F (2001)
Degree Days  
Heating Degree Days 30    
Moisture  
Dew Point 19 °F    
Average Humidity 60    
Maximum Humidity 99    
Minimum Humidity 22    
Precipitation  
Precipitation 0.00 in - - ()
Sea Level Pressure  
Sea Level Pressure 30.38 in    
Wind  
Wind Speed 20 mph (NW)    
Max Wind Speed 32 mph    
Max Gust Speed 38 mph    
Visibility 10 miles    
Events      
Averages and records for this station are not official NWS values.
T = Trace of Precipitation, MM = Missing Value Source: NWS Daily Summary

Daily Weather History Graph

Daily Weather History Graph

Search for Another Location

Airport:

Trip Planner

Search our weather history database for the weather conditions in past years. The results will help you decide how hot, cold, wet, or windy it might be!

Date:

Astronomy

Jan. 01, 2012 Rise Set
Actual Time 7:48 AM CST 5:05 PM CST
Civil Twilight 7:17 AM CST 5:36 PM CST
Nautical Twilight 6:43 AM CST 6:11 PM CST
Astronomical Twilight 6:09 AM CST 6:44 PM CST
Moon 11:56 AM CST (1/1) 12:43 AM CST (1/1)
Length of Visible Light 10h 18m
Length of Day
9h 16m
First Quarter, 55% of the Moon is Illuminated
Jan 1
First Quarter
Jan 9
Full
Jan 16
Last Quarter
Jan 23
New
Jan 30
First Quarter

Hourly Weather History & Observations

Time (CST) Temp. Windchill Dew Point Humidity Pressure Visibility Wind Dir Wind Speed Gust Speed Precip Events Conditions
12:55 AM 37.8 °F 26.3 °F 37.4 °F 99% 30.00 in 10.0 mi NW 25.3 mph 32.2 mph N/A   Clear
1:55 AM 36.5 °F 25.4 °F 35.1 °F 95% 30.05 in 10.0 mi NW 21.9 mph 34.5 mph N/A   Clear
2:55 AM 35.6 °F 25.2 °F 33.8 °F 93% 30.13 in 10.0 mi NW 18.4 mph 27.6 mph N/A   Clear
3:55 AM 34.5 °F 23.1 °F 32.7 °F 93% 30.19 in 10.0 mi NW 20.7 mph 28.8 mph N/A   Clear
4:55 AM 33.3 °F 22.1 °F 30.9 °F 91% 30.22 in 10.0 mi NW 18.4 mph 24.2 mph N/A   Clear
5:55 AM 32.2 °F 22.7 °F 30.0 °F 92% 30.27 in 10.0 mi NW 12.7 mph - N/A   Clear
6:55 AM 31.5 °F 21.8 °F 28.2 °F 88% 30.30 in 10.0 mi NW 12.7 mph - N/A   Clear
7:55 AM 29.7 °F 21.3 °F 27.1 °F 90% 30.34 in 10.0 mi WNW 9.2 mph - N/A   Clear
8:55 AM 32.2 °F 23.8 °F 25.7 °F 77% 30.38 in 10.0 mi WNW 10.4 mph - N/A   Clear
9:55 AM 34.7 °F 24.7 °F 26.2 °F 71% 30.40 in 10.0 mi WNW 16.1 mph - N/A   Clear
10:55 AM 38.1 °F 27.3 °F 19.9 °F 48% 30.40 in 10.0 mi WNW 23.0 mph 27.6 mph N/A   Clear
11:55 AM 39.9 °F 30.0 °F 17.4 °F 40% 30.39 in 10.0 mi NW 21.9 mph 38.0 mph N/A   Clear
12:55 PM 41.4 °F 30.0 °F 12.0 °F 30% 30.38 in 10.0 mi WNW 32.2 mph - N/A   Clear
1:55 PM 41.2 °F 30.9 °F 8.8 °F 26% 30.39 in 10.0 mi WNW 25.3 mph 35.7 mph N/A   Clear
2:55 PM 40.3 °F 28.7 °F 4.1 °F 22% 30.41 in 10.0 mi WNW 31.1 mph 36.8 mph N/A   Clear
3:55 PM 38.7 °F 29.1 °F 9.0 °F 29% 30.46 in 10.0 mi NW 18.4 mph 28.8 mph N/A   Clear
4:55 PM 36.5 °F 26.7 °F 9.7 °F 33% 30.49 in 10.0 mi NW 17.3 mph 28.8 mph N/A   Clear
5:55 PM 34.0 °F 24.6 °F 11.1 °F 39% 30.52 in 10.0 mi NW 13.8 mph - N/A   Clear
6:55 PM 33.1 °F 23.0 °F 10.2 °F 39% 30.55 in 10.0 mi NW 15.0 mph 27.6 mph N/A   Clear
7:55 PM 31.3 °F 20.7 °F 10.9 °F 43% 30.56 in 10.0 mi NW 15.0 mph 21.9 mph N/A   Clear
8:55 PM 30.4 °F 19.1 °F 11.1 °F 45% 30.57 in 10.0 mi NW 16.1 mph 27.6 mph N/A   Clear
9:55 PM 30.0 °F 18.3 °F 11.1 °F 45% 30.58 in 10.0 mi NW 17.3 mph 24.2 mph N/A   Clear
10:55 PM 28.8 °F 17.0 °F 11.5 °F 49% 30.58 in 10.0 mi NW 16.1 mph 23.0 mph N/A   Clear
11:55 PM 27.7 °F 16.1 °F 11.8 °F 51% 30.57 in 10.0 mi NW 15.0 mph 27.6 mph N/A   Clear